Regional Weather Roundup
Issued by NWS

Home | Current Version | Previous Version | Graphics & Text | Print | Product List | Glossary On
Versions: 1 2 3 4 5 6 7 8 9 10 11 12 13 14 15 16 17 18 19 20 21 22 23 24 25 26 27 28 29 30 31 32 33 34 35 36 37 38 39 40 41 42 43 44 45 46 47 48 49 50
866
ASUS44 KLIX 160101
RWRLA
LOUISIANA WEATHER ROUNDUP
NATIONAL WEATHER SERVICE NEW ORLEANS LA
800 PM CDT TUE APR 15 2014

NOTE: "FAIR" INDICATES FEW OR NO CLOUDS BELOW 12,000 FEET WITH NO
      SIGNIFICANT WEATHER AND/OR OBSTRUCTIONS TO VISIBILITY.
      SKY/WX - SKY CONDITION AND SIGNIFICANT WEATHER.
      TMP - AIR TEMPERATURE.    DP   - DEWPOINT TEMPERATURE.
      RH  - RELATIVE HUMIDITY.  PRES - PRESSURE.
      HX  - HEAT INDEX.         WCI  - WIND CHILL INDEX.

*  THESE STATIONS ARE NOT NWS OR FAA STATIONS AND ARE NOT UNDER
   NWS QUALITY CONTROL.

LAZ040-048-061>063-065-066-069-160200-
SOUTHEAST LOUISIANA

CITY           SKY/WX    TMP DP  RH WIND       PRES   REMARKS
N.O. AUDUBON   NOT AVBL
N.O. INTL ARPT MOCLDY    56  29  35 N14       30.14R
N.O. LAKEFRONT PTCLDY    57  33  40 N20       30.14R
N.O. DOWNTOWN* FAIR      57  28  33 N9        30.14R
SLIDELL        PTCLDY    53  30  41 N6        30.14R
BATON ROUGE    CLEAR     53  30  41 N5        30.17R
BOOTHVILLE     PTCLDY    58  34  40 N13G23    30.11R
BELLE CHASSE   MOCLDY    56  30  37 N7        30.12R
BOGALUSA*        N/A     50  34  54 N6        30.17R
GALLIANO*      NOT AVBL
NEW ROADS*     NOT AVBL
GONZALES*      FAIR      53  30  41 N8        30.15R
HAMMOND*       NOT AVBL
HOUMA*           N/A     55  30  38 N8        30.13R
PORT FOURCHON* CLEAR     57  34  41 N13G21    30.14R

$$

LAZ041-044-053-054-160200-
SOUTHWEST LOUISIANA

CITY           SKY/WX    TMP DP  RH WIND       PRES   REMARKS
LAKE CHARLES   CLEAR     54  33  45 N5        30.16S
LAFAYETTE      CLEAR     52  31  44 N9        30.18R
PATTERSON      CLEAR     54  32  43 N8        30.18R
SALT POINT       N/A     56  33  42 VRB7      30.15R
NEW IBERIA     CLEAR     51  31  46 N9        30.18R
CHENAULT AIRPK CLEAR     55  32  41 VRB5      30.18S

$$

LAZ027-028-160200-
CENTRAL LOUISIANA

CITY           SKY/WX    TMP DP  RH WIND       PRES   REMARKS
FORT POLK      CLEAR     50  39  66 N3        30.17S
ALEXANDRIA INT CLEAR     53  35  50 NE3       30.17S
ALEXANDRIA     CLEAR     48  38  68 NE3       30.19R

$$

LAZ001-002-160200-
NORTHWEST LOUISIANA

CITY           SKY/WX    TMP DP  RH WIND       PRES   REMARKS
SHREVEPORT     CLEAR     53  34  48 CALM      30.17S
BARKSDALE AFB  CLEAR     55  30  39 NE2       30.18R
DTN SHREVEPORT CLEAR     50  34  54 CALM      30.18R

$$

LAZ014-016-160200-
NORTHEAST LOUISIANA

CITY           SKY/WX    TMP DP  RH WIND       PRES   REMARKS
MONROE         CLEAR     50  35  56 E6        30.21R
TALLULAH       CLEAR     50  32  50 NE10      30.22R

$$




USA.gov is the U.S. government's official web portal to all federal, state and local government web resources and services.